Stations météo

réclame
Mon MeteoGroup
Andrewsfield, Grande-Bretagne (3684): Température de l'air & dewpoint: 13.07.2019 07:00:00 - 19.07.2019 07:00:00 (BST)Andrewsfield, Grande-Bretagne (3684): Température de l'air -20cm & Température de l'air -100cm: 13.07.2019 07:00:00 - 19.07.2019 07:00:00 (BST)Andrewsfield, Grande-Bretagne (3684): Vitesse du vent: 13.07.2019 07:00:00 - 19.07.2019 07:00:00 (BST)Andrewsfield, Grande-Bretagne (3684): Direction du vent: 13.07.2019 07:00:00 - 19.07.2019 07:00:00 (BST)Andrewsfield, Grande-Bretagne (3684): reduced air pressure: 13.07.2019 07:00:00 - 19.07.2019 07:00:00 (BST)Andrewsfield, Grande-Bretagne (3684): visibility: 13.07.2019 07:00:00 - 19.07.2019 07:00:00 (BST)Andrewsfield, Grande-Bretagne (3684): Quantités de précipitations: 13.07.2019 07:00:00 - 19.07.2019 07:00:00 (BST)
Date & Time tt [°C] td [°C] tt -20cm [°C] tt -100cm [°C] ff [km/h] ff [knt] dd ppp [hPa] vv [km] rr [mm]
19.07.2019 07:00:00 13,5 12,0 - - 8 4 WSW 1012,5 35 -
19.07.2019 06:00:00 10,8 10,1 - - 8 4 SW 1012,2 35 0,0
19.07.2019 05:00:00 10,3 9,4 - - 8 4 SW 1012,6 35 0,0
19.07.2019 04:00:00 10,8 9,7 - - 9 5 WSW 1012,3 45 0,0
19.07.2019 03:00:00 12,6 10,9 - - 8 4 SW 1012,4 55 0,0
19.07.2019 02:00:00 13,0 10,4 - - 9 5 W 1012,4 55 0,0
19.07.2019 01:00:00 14,1 11,2 - - 11 6 W 1012,5 60 0,0
19.07.2019 00:00:00 14,5 10,9 - - 8 4 WSW 1012,0 75 0,0
18.07.2019 23:00:00 14,5 10,4 - - 5 3 W 1011,8 75 0,0
18.07.2019 22:00:00 16,4 10,4 - - 5 3 W 1011,5 75 0,0
18.07.2019 21:00:00 18,2 10,2 - - 8 4 WNW 1010,9 75 0,0
18.07.2019 20:00:00 21,0 9,0 - - 13 7 W 1010,3 75 0,0
18.07.2019 19:00:00 21,9 10,4 - - 13 7 WNW 1009,9 75 0,0
18.07.2019 18:00:00 21,6 9,8 - - 16 9 W 1009,6 75 0,0
18.07.2019 17:00:00 22,4 11,6 - - 15 8 WNW 1009,4 75 0,0
18.07.2019 16:00:00 21,2 12,8 - - 15 8 WNW 1009,3 75 0,0
18.07.2019 15:00:00 21,6 13,6 - - 18 10 W 1009,1 75 0,0
18.07.2019 14:00:00 18,8 15,8 - - 8 4 WNW 1009,2 75 0,0
18.07.2019 13:00:00 19,8 17,0 - - 15 8 W 1008,7 65 0,0
18.07.2019 12:00:00 18,7 16,6 - - 13 7 W 1008,9 65 0,0
18.07.2019 11:00:00 16,9 16,3 - - 15 8 WSW 1009,0 22 0,8
18.07.2019 10:00:00 16,3 16,1 19,2 16,7 13 7 SW 1009,1 1,5 1,2
18.07.2019 09:00:00 15,9 15,5 - - 15 8 SW 1009,1 1,2 0,4
18.07.2019 08:00:00 15,7 15,0 - - 18 10 SW 1009,2 4,8 0,2
18.07.2019 07:00:00 15,7 14,5 - - 11 6 SSW 1009,2 13 0,0
18.07.2019 06:00:00 14,7 13,4 - - 9 5 SSW 1009,3 16 0,0
18.07.2019 05:00:00 14,4 13,3 - - 8 4 SW 1009,6 16 0,0
18.07.2019 04:00:00 14,5 13,3 - - 9 5 WSW 1009,8 15 0,0
18.07.2019 03:00:00 15,1 12,8 - - 9 5 SW 1010,2 35 0,2
18.07.2019 02:00:00 14,9 12,3 - - 11 6 WSW 1010,6 10 0,0
18.07.2019 01:00:00 15,6 12,9 - - 9 5 WSW 1010,9 40 0,0
18.07.2019 00:00:00 17,0 13,7 - - 8 4 SW 1011,0 40 0,0
17.07.2019 23:00:00 17,7 13,9 - - 11 6 SW 1011,1 40 0,0
17.07.2019 22:00:00 18,0 15,1 - - 8 4 SW 1011,2 30 0,0
17.07.2019 21:00:00 20,5 13,5 - - 9 5 SSW 1011,0 23 0,0
17.07.2019 20:00:00 21,6 10,9 - - 9 5 SSE 1010,9 75 0,0
17.07.2019 19:00:00 22,3 10,7 - - 11 6 S 1011,3 75 0,0
17.07.2019 18:00:00 23,0 9,9 - - 15 8 SSW 1011,5 75 0,0
17.07.2019 17:00:00 23,5 9,1 - - 13 7 SSW 1011,8 75 0,0
17.07.2019 16:00:00 24,0 8,0 - - 15 8 SSW 1012,3 75 0,0
17.07.2019 15:00:00 24,2 7,9 - - 13 7 SSW 1012,7 75 0,0
17.07.2019 14:00:00 23,9 7,0 - - 15 8 SSE 1013,1 75 0,0
17.07.2019 13:00:00 24,1 8,8 - - 15 8 S 1013,5 75 0,0
17.07.2019 12:00:00 24,1 11,8 - - 13 7 S 1013,9 75 0,0
17.07.2019 11:00:00 23,4 11,1 - - 15 8 SW 1014,4 70 0,0
17.07.2019 10:00:00 22,0 13,2 19,0 16,7 9 5 SW 1014,8 35 0,0
17.07.2019 09:00:00 19,5 13,6 - - 13 7 SSW 1015,2 30 0,0
17.07.2019 08:00:00 17,5 14,5 - - 5 3 SW 1015,1 21 0,0
17.07.2019 07:00:00 14,5 13,7 - - 5 3 WSW 1015,3 12 0,0
17.07.2019 06:00:00 12,4 12,0 - - 5 3 WSW 1015,7 7 0,0
17.07.2019 05:00:00 12,3 11,1 - - 8 4 SSW 1015,8 7 0,0
17.07.2019 04:00:00 13,8 12,3 - - 8 4 SSW 1016,0 16 0,0
17.07.2019 03:00:00 14,4 12,6 - - 8 4 S 1016,4 17 0,0
17.07.2019 02:00:00 15,1 13,0 - - 8 4 S 1016,7 18 0,0
17.07.2019 01:00:00 15,4 13,0 - - 11 6 SSW 1016,9 21 0,0
17.07.2019 00:00:00 16,3 13,3 - - 11 6 SSW 1016,9 25 0,0
16.07.2019 23:00:00 17,8 13,6 - - 11 6 SSW 1016,9 35 0,0
16.07.2019 22:00:00 18,8 14,0 - - 9 5 SSE 1016,9 45 0,0
16.07.2019 21:00:00 20,0 11,9 - - 13 7 SE 1016,6 60 0,0
16.07.2019 20:00:00 22,5 10,7 - - 8 4 S 1016,4 70 0,0
16.07.2019 19:00:00 25,0 11,2 - - 4 2 WSW 1016,4 65 0,0
16.07.2019 18:00:00 24,8 10,1 - - 4 2 E 1016,4 55 0,0
16.07.2019 17:00:00 24,4 10,5 - - 8 4 SE 1016,8 75 0,0
16.07.2019 16:00:00 25,1 11,5 - - 5 3 E 1017,2 75 0,0
16.07.2019 15:00:00 25,1 11,7 - - 8 4 E 1017,7 70 0,0
16.07.2019 14:00:00 24,3 10,5 - - 8 4 NNE 1018,0 75 0,0
16.07.2019 13:00:00 22,6 11,3 - - 4 2 NNW 1018,4 75 0,0
16.07.2019 12:00:00 22,8 11,5 - - 5 3 S 1018,7 65 0,0
16.07.2019 11:00:00 22,0 12,1 - - 9 5 NW 1019,0 65 0,0
16.07.2019 10:00:00 19,7 12,1 18,0 16,7 8 4 WNW 1019,6 45 0,0
16.07.2019 09:00:00 17,5 13,0 - - 8 4 WNW 1020,0 40 0,0
16.07.2019 08:00:00 16,2 12,7 - - 9 5 W 1020,1 45 0,0
16.07.2019 07:00:00 12,6 11,4 - - 13 7 W 1020,2 23 0,0
16.07.2019 06:00:00 10,5 9,9 - - 11 6 W 1020,0 19 0,0
16.07.2019 05:00:00 10,0 9,2 - - 11 6 W 1020,2 18 0,0
16.07.2019 04:00:00 10,7 10,6 - - 13 7 W 1020,3 19 0,0
16.07.2019 03:00:00 9,9 9,8 - - 5 3 W 1020,7 6 0,0
16.07.2019 02:00:00 9,7 9,2 - - 5 3 W 1020,9 11 0,0
16.07.2019 01:00:00 10,5 9,9 - - 8 4 WSW 1021,3 18 0,0
16.07.2019 00:00:00 11,5 10,2 - - 5 3 SW 1021,4 30 0,0
15.07.2019 23:00:00 12,1 9,1 - - 9 5 SSW 1021,6 55 0,0
15.07.2019 22:00:00 13,1 10,1 - - 4 2 WSW 1021,5 75 0,0
15.07.2019 21:00:00 16,3 9,8 - - 2 1 ENE 1021,4 75 0,0
15.07.2019 20:00:00 17,3 10,5 - - 8 4 NNE 1021,4 75 0,0
15.07.2019 19:00:00 17,9 10,5 - - 8 4 N 1021,5 75 0,0
15.07.2019 18:00:00 18,6 10,9 - - 5 3 N 1021,4 75 0,0
15.07.2019 17:00:00 18,9 10,3 - - 8 4 N 1021,8 35 0,0
15.07.2019 16:00:00 18,9 10,7 - - 13 7 NE 1022,2 75 0,0
15.07.2019 15:00:00 19,2 11,1 - - 9 5 NNE 1022,3 75 0,0
15.07.2019 14:00:00 17,9 10,8 - - 13 7 NE 1022,4 75 0,0
15.07.2019 13:00:00 17,2 10,5 - - 9 5 N 1022,6 75 0,0
15.07.2019 12:00:00 16,3 10,7 - - 9 5 NE 1022,8 75 0,0
15.07.2019 11:00:00 15,5 10,5 - - 9 5 NNE 1023,0 75 0,0
15.07.2019 10:00:00 14,7 10,7 18,4 16,7 11 6 NE 1023,2 75 0,0
15.07.2019 09:00:00 14,0 10,9 - - 11 6 N 1023,2 75 0,0
15.07.2019 08:00:00 13,5 11,1 - - 8 4 N 1022,9 75 0,0
15.07.2019 07:00:00 12,9 10,7 - - 5 3 N 1022,8 75 0,0
15.07.2019 06:00:00 12,4 10,8 - - 8 4 N 1022,9 70 0,0
15.07.2019 05:00:00 12,3 10,4 - - 5 3 N 1023,0 75 0,0
15.07.2019 04:00:00 12,3 10,4 - - 5 3 NW 1023,0 75 0,0
15.07.2019 03:00:00 12,3 10,3 - - 4 2 N 1023,0 75 0,0
15.07.2019 02:00:00 12,4 10,3 - - 5 3 NNE 1023,3 75 0,0
15.07.2019 01:00:00 11,5 10,4 - - 8 4 N 1023,6 75 0,0
15.07.2019 00:00:00 11,7 10,2 - - 8 4 NNW 1023,9 75 0,0
14.07.2019 23:00:00 11,9 9,4 - - 5 3 N 1024,0 75 0,0
14.07.2019 22:00:00 12,6 9,2 - - 8 4 NNE 1023,7 75 0,0
14.07.2019 21:00:00 14,6 9,7 - - 11 6 NNE 1023,3 75 0,0
14.07.2019 20:00:00 17,0 10,2 - - 16 9 NNE 1023,1 75 0,0
14.07.2019 19:00:00 18,4 10,3 - - 16 9 N 1023,0 75 0,0
14.07.2019 18:00:00 18,7 10,7 - - 15 8 NNE 1023,0 75 0,0
14.07.2019 17:00:00 19,0 10,7 - - 18 10 NE 1022,9 75 0,0
14.07.2019 16:00:00 19,2 10,5 - - 16 9 NE 1023,2 75 0,0
14.07.2019 15:00:00 19,3 10,6 - - 16 9 NE 1023,1 75 0,0
14.07.2019 14:00:00 18,5 11,1 - - 15 8 N 1023,3 75 0,0
14.07.2019 13:00:00 19,5 12,1 - - 11 6 NNE 1023,2 75 0,0
14.07.2019 12:00:00 18,4 11,4 - - 13 7 NNE 1023,2 75 0,0
14.07.2019 11:00:00 18,3 12,2 - - 11 6 NE 1023,4 75 0,0
14.07.2019 10:00:00 15,9 12,4 18,7 16,7 13 7 NNE 1023,6 60 0,0
14.07.2019 09:00:00 14,8 12,8 - - 15 8 NNE 1023,7 30 0,0
14.07.2019 08:00:00 13,5 12,7 - - 8 4 NNE 1023,2 18 0,2
14.07.2019 07:00:00 12,8 12,4 - - 5 3 NNE 1023,2 11 0,0
14.07.2019 06:00:00 12,3 11,9 - - 8 4 NNE 1023,0 6 0,2
14.07.2019 05:00:00 12,4 11,7 - - 5 3 NNE 1023,0 14 0,0
14.07.2019 04:00:00 12,5 11,7 - - 5 3 ENE 1022,8 21 0,0
14.07.2019 03:00:00 11,9 11,2 - - 11 6 ENE 1023,2 12 0,0
14.07.2019 02:00:00 11,9 11,4 - - 8 4 NE 1023,4 15 0,0
14.07.2019 01:00:00 12,9 12,3 - - 5 3 NE 1022,9 20 0,0
14.07.2019 00:00:00 13,7 12,6 - - 5 3 NE 1022,8 27 0,0
13.07.2019 23:00:00 15,9 13,8 - - 4 2 SE 1022,6 45 0,0
13.07.2019 22:00:00 16,5 14,1 - - 4 2 SSE 1022,7 50 0,0
13.07.2019 21:00:00 17,3 14,3 - - 5 3 ENE 1022,4 60 0,0
13.07.2019 20:00:00 18,8 13,2 - - 5 3 NE 1022,0 75 0,0
13.07.2019 19:00:00 19,2 13,1 - - 5 3 NNW 1021,8 75 0,0
13.07.2019 18:00:00 19,7 13,3 - - 11 6 NNW 1021,8 75 0,0
13.07.2019 17:00:00 19,9 13,2 - - 11 6 NW 1021,7 40 0,0
13.07.2019 16:00:00 19,4 13,5 - - 9 5 WNW 1021,9 75 0,0
13.07.2019 15:00:00 18,9 13,6 - - 9 5 NW 1022,0 50 0,0
13.07.2019 14:00:00 17,7 13,6 - - 11 6 N 1022,2 30 0,0
13.07.2019 13:00:00 19,0 14,3 - - 13 7 NW 1022,0 16 0,0
13.07.2019 12:00:00 18,0 14,3 - - 11 6 N 1022,1 22 0,0
13.07.2019 11:00:00 17,1 14,2 - - 9 5 NNW 1021,6 24 0,0
13.07.2019 10:00:00 16,4 13,5 19,4 16,7 11 6 NW 1021,4 29 0,0
13.07.2019 09:00:00 15,6 13,1 - - 11 6 NNW 1021,5 35 0,0
13.07.2019 08:00:00 15,1 12,8 - - 11 6 NNW 1021,0 55 0,0
13.07.2019 07:00:00 14,7 13,0 - - 11 6 NW 1020,6 50 0,0

tt = Température de l'air
td = dewpoint
tt -20cm = Température de l'air -20cm
tt -100cm = Température de l'air -100cm
ff = Vitesse du vent
dd = Direction du vent
ppp = reduced air pressure
vv = visibility
rr = Quantités de précipitations

stations d'obs. à proximité